FW1194 Weather Reports


Display with metric or nautical units.
time (UTC)temp
F
wind
direction
speed
MPH
gust
MPH
rain 1hr
in
rain 24hr
in
rain mn
in
humidity
%
barometer
mb
20260905032217 82 68 4.0 5.0 0.00 0.00 0.00 79 1012.5
20260905031237 83 225 2.0 2.0 0.00 0.00 0.00 80 1012.5
20260905030217 83 0.0 0.0 0.00 0.00 0.00 79 1012.4
20260905025217 83 0.0 0.0 0.00 0.00 0.00 79 1012.6
20260905024217 84 0.0 0.0 0.00 0.00 0.00 78 1012.5
20260905023217 84 0.0 0.0 0.00 0.00 0.00 77 1012.5
20260905022217 84 0.0 0.0 0.00 0.00 0.00 76 1012.5
20260905021217 85 0.0 0.0 0.00 0.00 0.00 76 1012.3
20260905020237 85 0.0 1.0 0.00 0.00 0.00 75 1012.4
20260905015237 85 225 1.0 1.0 0.00 0.00 0.00 74 1012.2
20260905014217 85 0.0 0.0 0.00 0.00 0.00 73 1012.1
20260905013217 86 203 1.0 2.0 0.00 0.00 0.00 72 1011.9
20260905012237 86 248 1.0 2.0 0.00 0.00 0.00 72 1011.8
20260905011217 86 203 2.0 4.0 0.00 0.00 0.00 71 1011.6
20260905010217 86 203 3.0 4.0 0.00 0.00 0.00 71 1011.3
20260905005217 87 203 3.0 3.0 0.00 0.00 0.00 70 1011.1
20260905004217 87 203 3.0 4.0 0.00 0.00 0.00 69 1011.1
20260905003217 87 248 2.0 5.0 0.00 0.00 0.00 69 1011.3
20260905002216 88 225 2.0 4.0 0.00 0.00 0.00 68 1011.3
20260905001217 88 270 2.0 4.0 0.00 0.00 0.00 67 1011.3
20260905000218 89 203 3.0 4.0 0.00 0.00 0.00 67 1010.9
20260904235217 89 225 4.0 5.0 0.00 0.00 0.00 66 1011.1
20260904234217 90 0 4.0 5.0 0.00 0.00 0.00 65 1011.0
20260904233217 90 0 5.0 7.0 0.00 0.00 0.00 64 1011.0
20260904232217 91 225 6.0 10.0 0.00 0.00 0.00 63 1011.2
20260904231217 91 0 5.0 9.0 0.00 0.00 0.00 62 1011.3
20260904230216 92 203 6.0 8.0 0.00 0.00 0.00 61 1011.4
20260904225216 92 203 7.0 10.0 0.00 0.00 0.00 61 1011.5
20260904224217 92 225 7.0 11.0 0.00 0.00 0.00 60 1011.5
20260904223216 92 225 5.0 8.0 0.00 0.00 0.00 60 1011.4
20260904222216 92 203 8.0 10.0 0.00 0.00 0.00 59 1011.4
20260904221217 93 225 7.0 10.0 0.00 0.00 0.00 58 1011.5
20260904220216 93 225 8.0 11.0 0.00 0.00 0.00 57 1011.5
20260904215217 93 225 7.0 10.0 0.00 0.00 0.00 57 1011.6
20260904214216 93 225 7.0 10.0 0.00 0.00 0.00 58 1011.4
20260904213216 93 225 7.0 10.0 0.00 0.00 0.00 57 1011.4
20260904212236 92 203 7.0 9.0 0.00 0.00 0.00 57 1011.4
20260904211216 92 203 6.0 10.0 0.00 0.00 0.00 57 1011.3
20260904210216 92 180 5.0 7.0 0.00 0.00 0.00 57 1011.3
20260904205216 92 0 9.0 13.0 0.00 0.00 0.00 57 1011.3
20260904204216 93 180 7.0 9.0 0.00 0.00 0.00 56 1011.3
20260904203216 92 225 8.0 12.0 0.00 0.00 0.00 56 1011.4
20260904202216 93 203 8.0 11.0 0.00 0.00 0.00 55 1011.8
20260904201236 92 203 7.0 10.0 0.00 0.00 0.00 57 1011.9
20260904200216 92 180 5.0 9.0 0.00 0.00 0.00 57 1012.1
20260904195216 92 203 6.0 8.0 0.00 0.00 0.00 56 1012.3
20260904194216 92 203 5.0 9.0 0.00 0.00 0.00 56 1012.5
20260904193216 92 203 3.0 6.0 0.00 0.00 0.00 56 1012.6
20260904192216 91 135 5.0 9.0 0.00 0.00 0.00 54 1012.8
20260904191216 91 203 6.0 8.0 0.00 0.00 0.00 57 1012.9
20260904190216 90 225 5.0 8.0 0.00 0.00 0.00 56 1012.9
20260904185236 90 90 4.0 8.0 0.00 0.00 0.00 57 1013.2
20260904184216 89 90 3.0 7.0 0.00 0.00 0.00 57 1013.2
20260904183216 89 180 5.0 7.0 0.00 0.00 0.00 60 1013.2
20260904182216 88 90 7.0 11.0 0.00 0.00 0.00 61 1013.4
20260904181216 87 135 5.0 9.0 0.00 0.00 0.00 63 1013.3
20260904180216 87 90 7.0 16.0 0.00 0.00 0.00 61 1013.4
20260904175216 87 90 9.0 14.0 0.00 0.00 0.00 63 1013.6
20260904174216 85 113 7.0 10.0 0.00 0.00 0.00 67 1014.0
20260904173216 85 90 6.0 9.0 0.00 0.00 0.00 66 1014.4
20260904172216 84 113 6.0 12.0 0.00 0.00 0.00 68 1015.0
20260904171216 83 90 8.0 10.0 0.00 0.00 0.00 69 1015.4
20260904170216 82 90 9.0 13.0 0.00 0.00 0.00 69 1015.4
20260904165216 82 68 5.0 10.0 0.00 0.00 0.00 71 1015.8
20260904164216 82 90 13.0 18.0 0.00 0.00 0.00 72 1015.4
20260904163236 80 68 6.0 9.0 0.00 0.00 0.00 75 1015.4
20260904162236 80 45 10.0 16.0 0.00 0.00 0.00 74 1015.5
20260904161216 80 90 6.0 10.0 0.00 0.00 0.00 75 1015.6
20260904160216 80 45 15.0 24.0 0.00 0.00 0.00 74 1015.5
20260904155216 81 45 11.0 18.0 0.00 0.00 0.00 74 1015.3
20260904154216 82 68 12.0 17.0 0.00 0.00 0.00 75 1015.1
20260904153216 82 68 7.0 9.0 0.00 0.00 0.00 73 1015.1
20260904152216 83 68 4.0 8.0 0.00 0.00 0.00 74 1014.9
20260904151216 83 45 4.0 8.0 0.00 0.00 0.00 76 1014.3
20260904150216 82 68 9.0 15.0 0.00 0.00 0.00 78 1014.4
20260904145216 82 68 9.0 13.0 0.00 0.00 0.00 78 1014.3
20260904144216 81 45 9.0 12.0 0.00 0.00 0.00 78 1014.2
20260904143236 81 90 10.0 13.0 0.00 0.00 0.00 78 1014.1
20260904142236 81 68 8.0 13.0 0.00 0.00 0.00 78 1014.1
20260904141216 80 45 7.0 10.0 0.00 0.00 0.00 79 1014.0
20260904140216 80 68 5.0 8.0 0.00 0.00 0.00 79 1014.1
20260904135216 80 45 8.0 11.0 0.00 0.00 0.00 79 1014.0
20260904134215 81 45 6.0 10.0 0.00 0.00 0.00 79 1014.0
20260904133215 80 90 4.0 6.0 0.00 0.00 0.00 80 1013.6
20260904132215 80 68 7.0 10.0 0.00 0.00 0.00 79 1013.9
20260904131216 81 45 4.0 5.0 0.00 0.00 0.00 79 1013.5
20260904130217 80 68 5.0 8.0 0.00 0.00 0.00 80 1013.5
20260904125237 79 90 4.0 7.0 0.00 0.00 0.00 82 1013.4
20260904124218 78 45 4.0 6.0 0.00 0.00 0.00 83 1013.2
20260904123238 77 68 2.0 3.0 0.00 0.00 0.00 83 1013.0
20260904122218 77 45 2.0 3.0 0.00 0.00 0.00 83 1012.7
20260904121217 77 158 1.0 1.0 0.00 0.00 0.00 82 1012.5
20260904120217 77 158 1.0 1.0 0.00 0.00 0.00 80 1012.3
20260904115237 78 158 1.0 1.0 0.00 0.00 0.00 80 1012.3
20260904114217 78 158 1.0 2.0 0.00 0.00 0.00 79 1012.1
20260904113217 78 225 1.0 2.0 0.00 0.00 0.00 79 1012.0
20260904112217 79 203 4.0 4.0 0.00 0.00 0.00 78 1011.8
20260904111217 79 248 2.0 3.0 0.00 0.00 0.00 78 1011.8
20260904110218 79 248 4.0 6.0 0.00 0.00 0.00 78 1011.9
20260904105217 78 248 3.0 4.0 0.00 0.00 0.00 79 1011.9
20260904104217 78 270 2.0 3.0 0.00 0.00 0.00 80 1011.6
20260904103217 78 225 5.0 10.0 0.00 0.00 0.00 82 1011.4
20260904102217 78 225 6.0 8.0 0.00 0.00 0.00 83 1011.4
20260904101217 77 203 5.0 7.0 0.00 0.00 0.00 85 1011.4
20260904100217 77 203 4.0 7.0 0.00 0.00 0.00 86 1011.5
20260904095218 77 225 4.0 6.0 0.00 0.00 0.00 87 1011.4
20260904094217 77 225 4.0 6.0 0.00 0.00 0.00 88 1011.3
20260904093217 77 203 6.0 9.0 0.00 0.00 0.00 88 1011.4
20260904092217 77 203 5.0 7.0 0.00 0.00 0.00 88 1011.6
20260904091217 77 203 4.0 7.0 0.00 0.00 0.00 88 1011.9
20260904090217 77 225 2.0 3.0 0.00 0.00 0.00 88 1012.0
20260904085257 77 203 1.0 1.0 0.00 0.00 0.00 88 1012.3
20260904084217 77 203 2.0 4.0 0.00 0.00 0.00 88 1012.2
20260904083217 77 203 3.0 5.0 0.00 0.00 0.00 88 1012.2
20260904082237 77 180 1.0 2.0 0.00 0.00 0.00 87 1012.2
20260904081217 77 0.0 0.0 0.00 0.00 0.00 87 1012.1
20260904080217 77 0.0 1.0 0.00 0.00 0.00 87 1012.1
20260904075217 77 0.0 1.0 0.00 0.00 0.00 87 1011.9
20260904074217 78 180 1.0 2.0 0.00 0.00 0.00 87 1011.8
20260904073217 77 180 2.0 2.0 0.00 0.00 0.00 87 1011.4
20260904072217 77 180 1.0 2.0 0.00 0.00 0.00 87 1011.4
20260904071217 77 203 2.0 3.0 0.00 0.00 0.00 87 1011.5
20260904070217 77 180 2.0 3.0 0.00 0.00 0.00 87 1011.4
20260904065217 77 203 1.0 2.0 0.00 0.00 0.00 87 1011.5
20260904064217 76 203 2.0 3.0 0.00 0.00 0.00 86 1011.8
20260904063217 76 135 2.0 3.0 0.00 0.00 0.00 86 1011.9
20260904062217 76 158 1.0 2.0 0.00 0.00 0.00 85 1012.2
20260904061217 76 0.0 0.0 0.00 0.00 0.00 84 1012.4
20260904060217 76 0.0 0.0 0.00 0.00 0.00 84 1012.6
20260904055217 76 0.0 0.0 0.00 0.00 0.00 84 1012.7
20260904054217 77 0.0 0.0 0.00 0.00 0.00 83 1012.8
20260904053217 77 0.0 0.0 0.00 0.00 0.00 83 1012.8
20260904052217 77 0.0 0.0 0.00 0.00 0.00 82 1012.8
20260904051216 78 0.0 1.0 0.00 0.00 0.00 82 1012.6
20260904050217 78 0.0 0.0 0.00 0.00 0.00 82 1012.6
20260904045217 78 45 1.0 2.0 0.00 0.00 0.00 82 1012.6
20260904044217 79 68 2.0 3.0 0.00 0.00 0.00 82 1012.6
20260904043217 79 0.0 0.0 0.00 0.00 0.00 82 1012.5
20260904042238 79 68 1.0 2.0 0.00 0.00 0.00 81 1012.6
20260904041217 79 45 1.0 2.0 0.00 0.00 0.00 81 1012.6
20260904040217 79 90 1.0 1.0 0.00 0.00 0.00 81 1012.8
20260904035217 80 0.0 1.0 0.00 0.00 0.00 80 1012.8
20260904034217 80 90 1.0 2.0 0.00 0.00 0.00 80 1012.8
20260904033217 80 90 2.0 3.0 0.00 0.00 0.00 80 1012.9